Voltar ao catálogo

STARLINK-36506

AtivoComunicaçõesVLEO
NORAD 67414·PAYLOAD·🇺🇸 United States

Lançado Jan 12, 2026 de Cape Canaveral Space Force Station

Loading…

Próximas Passagens (próximas 24 horas)

TLE

AtualizadoSource: CelesTrak SupGP

Época: Sep 15, 2026, 04:09 UTC

1 67414C 26005L   26258.17340278 -.00033542  00000+0 -12151-2 0  2588
2 67414  43.0004 247.6886 0000970 269.6982 237.2513 15.27589356    19

Acompanhe STARLINK-36506 em tempo real com AllMySat

Download on the App Store